GFSWCAN_sfc_temp_093.txt.gz
Temp
56 56 56 56 57 57 57 57 57 57 57 57 57 58 58 58 58 60 59 58 61 58 60 60 61 55 53 55 54 54 55 54 53 49 46 42 40 39 35 40 42 42 40 38 40 39 37 54 51 47 50 53 54 53
56 56 56 56 56 57 56 57 57 56 56 56 57 57 58 57 57 57 61 59 58 60 61 60 64 65 65 64 59 53 55 53 56 50 46 43 39 38 41 37 44 39 45 42 45 47 49 55 52 53 56 53 51 53
55 55 55 55 56 56 56 56 57 56 56 56 56 57 57 57 57 57 58 56 60 58 61 61 61 64 66 66 68 59 55 56 53 57 51 49 43 44 38 40 43 45 46 45 45 51 50 53 52 53 53 54 54 54
55 55 55 55 56 56 55 56 56 56 56 56 56 57 57 57 56 56 58 57 59 56 52 57 64 63 66 65 64 65 61 56 55 57 53 49 46 49 44 44 42 47 46 45 46 48 48 52 54 55 53 53 53 54
54 55 55 55 55 56 56 56 56 56 56 55 55 56 56 57 55 55 57 57 58 58 53 56 61 63 65 62 61 58 55 56 52 50 50 47 49 48 47 46 41 47 43 41 43 54 52 52 56 55 52 52 53 53
54 54 54 55 55 55 56 56 56 55 55 55 55 55 56 55 54 60 56 60 61 59 56 51 59 58 60 60 58 55 55 51 53 54 45 49 51 50 42 39 50 51 51 55 53 54 53 54 54 54 54 55 55 54
53 54 54 54 55 55 56 56 56 55 54 54 55 55 55 54 58 58 56 58 55 57 55 52 53 59 58 58 56 53 52 49 48 45 44 43 43 44 41 38 49 50 52 51 52 52 49 51 53 55 54 55 54 55
53 53 54 54 55 55 56 56 55 54 54 54 54 54 54 54 56 58 61 56 57 59 58 49 51 53 58 51 49 49 49 48 44 43 44 42 42 41 35 47 49 49 48 49 49 53 54 55 54 53 54 53 51 52
53 53 54 54 55 55 56 55 55 54 54 54 55 55 57 57 57 59 59 58 60 58 49 48 46 46 55 48 48 47 46 40 44 42 41 41 37 33 40 44 47 49 50 52 52 53 53 50 53 52 51 51 51 53
53 53 54 54 54 55 55 55 54 54 54 54 55 56 53 57 59 59 59 57 56 55 53 44 50 49 52 51 44 46 45 42 38 43 45 41 41 50 52 52 50 53 55 54 51 49 51 52 53 54 53 55 54 54
53 53 53 53 53 55 55 55 54 53 53 54 54 54 57 57 58 55 50 50 49 47 48 48 50 49 51 47 43 46 41 41 37 42 41 37 39 48 52 52 54 55 55 55 56 58 58 58 57 56 54 54 54 53
53 53 53 53 55 55 54 54 53 53 54 53 55 56 58 55 53 50 48 47 47 48 48 50 50 48 48 49 46 44 42 42 38 45 41 36 47 51 52 53 53 53 54 55 56 56 57 57 57 56 55 55 54 53
53 53 52 54 55 55 54 53 53 53 53 55 55 53 51 50 40 46 45 48 48 50 50 48 49 50 48 50 46 44 42 43 46 41 34 45 51 51 51 53 54 56 55 56 57 57 57 57 56 55 54 54 54 52
54 54 54 54 54 54 54 53 54 54 53 54 52 39 46 46 49 50 52 52 55 53 51 51 48 49 50 48 48 43 46 44 40 36 42 49 51 51 53 53 53 53 55 55 54 54 55 54 55 55 55 54 52 50
54 54 54 54 54 53 53 54 53 53 54 53 53 43 49 54 54 55 54 53 55 54 51 49 48 49 48 46 47 45 41 40 42 43 49 52 50 50 51 53 54 54 54 54 54 53 52 52 53 53 53 53 52 50
54 55 53 53 53 53 53 53 53 53 54 53 52 52 52 51 54 55 55 56 57 55 53 55 50 47 46 48 44 44 42 40 47 49 53 51 50 50 51 54 53 52 52 53 53 52 52 52 50 50 53 51 52 52
55 56 53 52 52 53 53 53 53 52 53 52 53 56 55 55 57 59 59 59 57 56 56 54 48 48 49 46 44 47 45 52 55 56 55 51 51 52 53 53 52 52 52 51 51 51 51 52 51 49 48 50 51 53
56 55 54 52 53 52 53 53 53 53 49 54 53 56 55 59 58 59 59 56 57 57 55 54 54 49 47 44 47 53 54 56 56 56 55 52 52 53 53 51 51 51 50 50 50 50 51 51 49 48 48 49 51 51
55 56 54 53 54 54 53 52 53 51 53 56 55 55 57 59 59 60 61 57 58 59 57 54 50 49 50 52 55 56 56 56 58 57 55 53 52 53 52 52 51 50 49 49 49 47 49 49 48 45 47 51 51 51
53 53 53 54 55 53 52 54 55 52 54 57 57 56 59 60 61 60 60 57 57 57 54 53 55 57 56 58 57 59 60 59 57 56 57 57 55 53 53 53 53 49 50 50 50 46 47 48 49 48 50 53 51 51
53 53 53 54 53 52 53 55 53 56 57 55 59 58 60 59 59 59 59 58 56 57 56 60 60 61 58 57 58 58 56 55 56 58 58 57 55 56 54 54 53 53 51 50 49 47 46 47 47 48 50 52 56 57
56 53 53 53 53 53 50 57 56 57 55 59 57 59 58 57 59 59 57 56 57 62 60 61 59 58 55 54 55 53 56 54 54 54 48 50 54 54 55 56 57 55 53 54 53 52 52 54 54 51 56 54 54 58
53 54 55 54 51 48 49 57 54 57 55 57 58 57 56 56 58 57 56 59 60 61 60 59 57 56 58 55 55 54 55 54 54 55 55 57 57 56 56 56 57 57 55 52 54 54 53 47 51 54 53 54 57 57
53 54 52 52 50 46 57 55 58 57 57 57 57 56 57 58 58 56 55 60 62 58 56 55 57 55 54 54 55 55 55 57 57 55 55 55 55 53 57 57 57 57 56 55 55 55 54 54 48 55 55 55 55 56
47 47 47 38 51 50 51 55 56 57 56 57 55 55 57 58 56 55 56 62 60 59 57 57 58 59 57 54 52 53 52 57 58 56 53 56 54 53 54 56 56 57 57 56 55 55 55 54 55 56 54 56 55 54
38 50 44 53 55 53 56 54 55 55 56 55 55 58 58 57 53 54 60 62 62 60 58 58 59 56 52 53 52 53 54 56 58 57 53 56 58 58 56 55 55 54 58 59 56 55 55 55 55 54 55 52 44 55
40 50 55 56 56 57 56 59 59 57 56 54 56 55 55 52 54 60 62 61 61 62 61 61 60 59 55 52 51 52 54 57 57 58 57 57 59 59 60 57 55 58 58 58 59 58 56 56 56 56 56 57 58 57
53 53 51 56 55 58 56 58 57 57 57 56 56 54 54 56 58 62 59 56 58 58 58 58 59 58 55 53 53 53 54 54 55 55 56 56 57 58 57 60 60 42 59 60 60 59 59 59 59 58 57 57 57 57
52 56 56 53 55 57 57 57 59 60 60 57 57 57 57 61 60 59 60 60 60 61 58 56 50 55 52 52 54 58 57 58 57 53 53 53 54 55 57 57 59 59 60 59 42 51 56 58 58 59 57 58 57 58
54 58 55 55 55 56 59 60 60 59 60 60 60 59 59 59 59 59 60 60 59 53 48 48 57 59 55 54 56 56 59 62 62 60 56 55 57 59 57 57 58 59 59 60 59 57 42 54 50 57 56 57 58 57
58 56 55 57 57 59 59 59 59 59 61 61 61 58 58 59 59 61 61 60 53 49 51 56 60 60 58 59 58 57 56 60 59 59 62 63 62 59 58 59 60 59 59 59 59 59 59 58 58 56 55 55 54 54
56 56 56 54 57 58 60 60 57 59 59 57 57 58 58 58 55 58 62 59 59 52 48 58 61 59 62 64 64 64 50 65 62 60 59 61 62 61 61 61 60 60 59 59 59 59 58 56 57 57 56 55 55 55
57 58 58 58 56 56 57 58 57 56 57 56 55 57 57 56 54 58 62 63 58 53 55 61 64 65 65 63 63 63 54 64 57 48 46 48 49 53 61 62 60 59 58 59 59 59 57 56 57 56 56 55 54 52

GFSWCAN_sfc_temp_096.txt.gz
Temp
56 56 56 57 57 56 57 57 57 57 57 57 57 58 59 59 58 66 71 70 69 70 71 69 70 66 66 67 63 63 63 63 63 56 57 53 47 48 40 48 51 50 48 46 51 47 45 64 60 54 60 64 64 64
55 56 56 56 56 56 57 56 57 57 57 57 57 58 58 58 57 59 74 73 71 69 69 71 74 73 72 72 71 67 64 62 69 63 61 59 50 53 50 43 56 45 54 49 54 57 59 64 61 63 65 63 62 62
55 55 55 55 56 56 57 56 57 57 57 56 57 57 58 57 57 59 71 70 72 70 71 71 69 72 78 75 78 65 68 67 65 67 66 63 50 55 45 48 52 56 58 53 53 61 59 63 62 63 64 63 64 64
55 55 55 55 55 56 56 56 57 57 56 56 56 57 57 57 57 56 71 71 70 69 64 64 75 68 74 75 72 73 69 65 66 65 61 61 56 60 56 55 50 58 57 53 54 59 59 61 63 63 62 63 63 64
54 54 54 54 55 55 56 56 57 56 56 56 56 56 57 57 56 66 73 72 72 66 64 66 71 72 74 71 69 68 67 62 63 61 57 55 62 58 61 56 50 57 51 48 50 61 60 61 64 65 62 61 62 62
54 54 54 54 54 55 55 56 57 56 56 55 55 56 56 56 55 68 64 72 73 70 66 59 69 66 68 69 66 63 63 56 50 48 48 51 56 52 46 45 55 62 63 62 59 63 63 64 64 65 63 64 63 63
54 54 54 54 54 55 55 56 56 56 55 55 55 55 56 55 67 66 63 65 59 69 65 61 60 66 67 67 66 62 61 50 50 46 44 44 46 45 39 38 50 54 58 59 59 61 57 60 61 64 63 63 60 63
53 53 54 54 55 55 55 56 55 55 55 55 55 55 55 56 56 64 68 61 63 69 69 60 60 61 67 62 55 61 54 57 52 45 46 43 43 42 36 46 51 54 55 56 58 60 62 64 64 63 63 63 60 60
53 53 54 54 54 55 56 55 55 55 55 55 55 56 64 65 67 67 60 60 71 67 61 61 56 52 68 60 59 61 59 45 55 46 47 46 40 35 46 51 49 49 49 52 58 61 61 60 61 61 60 60 59 60
53 53 54 54 54 55 55 55 55 54 54 55 60 65 61 66 57 60 64 65 66 68 67 58 65 57 64 62 58 56 59 48 41 52 52 48 45 57 59 59 57 52 57 59 57 55 57 58 59 60 60 61 61 62
53 53 54 53 53 53 55 55 54 54 52 64 65 63 66 59 67 66 59 60 59 55 61 64 62 59 66 52 53 59 47 52 42 46 45 44 47 57 59 58 61 61 59 62 63 61 61 60 61 63 62 62 62 61
53 53 53 53 53 55 55 54 54 60 66 60 64 66 68 62 62 56 58 54 56 56 60 61 59 62 58 63 55 55 46 52 43 56 46 41 58 59 60 59 60 59 59 61 64 62 64 64 64 63 63 62 61 61
53 52 53 54 55 55 54 54 53 54 55 66 64 57 58 58 44 52 50 56 57 61 61 56 56 61 55 60 56 54 44 44 58 45 37 52 58 61 60 61 61 62 61 60 61 64 63 63 63 62 62 62 62 60
54 53 54 55 55 55 54 53 54 55 61 62 57 41 53 52 58 62 64 63 64 68 63 63 57 57 61 54 56 48 50 51 45 42 47 58 58 60 60 62 60 59 61 62 62 61 61 60 60 61 61 61 60 58
54 54 55 55 55 54 54 53 54 62 64 59 60 47 55 66 68 68 68 66 66 70 64 61 61 60 58 54 57 54 48 44 49 48 58 62 60 60 60 60 61 60 59 61 61 61 60 59 59 59 61 60 59 57
55 55 57 53 53 53 53 53 59 63 63 61 60 61 65 62 64 66 66 68 69 68 68 65 60 55 55 58 51 49 48 46 56 62 65 62 58 59 59 60 61 61 60 60 60 60 59 59 57 58 59 58 57 57
56 64 53 53 53 53 53 60 62 59 61 58 62 68 67 66 69 70 70 71 70 66 65 65 53 53 62 54 50 57 52 58 62 66 67 61 59 59 59 59 60 60 58 58 58 58 58 58 59 56 54 55 53 55
63 59 53 52 55 54 61 62 61 59 55 63 62 68 67 68 70 70 71 70 67 66 67 61 66 55 53 50 55 60 62 65 67 66 66 61 59 59 60 59 60 59 58 57 57 56 56 55 53 52 54 54 53 54
59 61 53 52 57 59 56 60 61 57 60 66 68 69 68 70 72 72 73 70 70 72 68 64 58 57 59 63 62 64 66 66 64 65 65 61 61 59 59 59 60 58 57 56 56 54 53 52 50 53 49 51 52 55
53 53 53 53 55 60 57 60 61 58 61 65 69 68 68 70 74 72 71 69 67 66 62 60 61 66 66 68 69 68 68 68 66 60 60 63 63 60 60 62 62 60 62 58 56 51 55 52 48 47 52 53 55 55
54 57 55 58 60 59 61 64 56 59 67 64 72 69 68 70 68 68 68 71 64 63 63 68 70 72 72 69 69 68 66 66 65 64 61 64 63 64 62 62 62 65 63 60 58 54 52 54 50 53 58 62 63 64
64 54 62 59 59 60 59 66 63 66 64 69 68 69 67 66 68 69 73 64 64 68 71 71 72 72 66 62 60 61 65 63 64 60 55 57 62 62 62 64 65 63 64 62 61 58 58 58 57 57 61 62 60 65
54 58 62 61 54 50 53 65 58 65 59 64 68 64 66 66 70 68 64 69 71 75 74 70 67 66 67 62 59 59 61 62 62 64 64 66 66 65 64 65 67 65 61 61 64 64 60 48 55 62 62 64 66 64
54 60 57 58 56 50 62 59 66 64 66 64 64 61 65 68 66 64 62 69 75 73 70 63 66 64 63 59 61 59 60 65 65 64 67 66 64 63 64 65 66 66 65 64 66 65 65 61 52 62 62 63 63 60
49 49 51 39 59 52 53 60 62 64 61 65 61 63 67 67 63 64 64 70 72 72 69 66 68 68 62 59 58 58 59 66 65 63 65 68 66 64 63 64 66 65 67 64 62 62 62 64 63 63 62 63 59 59
40 56 47 59 61 57 61 57 59 60 63 62 63 68 68 65 59 59 68 68 69 69 70 68 64 60 60 61 56 59 60 67 68 65 64 66 65 64 62 60 61 61 67 67 63 62 61 64 62 60 59 57 46 58
44 56 61 65 63 64 63 67 68 66 61 61 65 62 62 57 59 66 70 68 66 68 68 70 64 62 58 56 57 60 64 68 66 65 66 67 68 70 69 64 61 63 66 66 66 64 62 61 59 59 60 60 61 61
59 60 56 63 63 66 60 63 63 61 65 68 66 61 60 61 60 68 67 68 69 67 66 65 65 62 56 59 63 65 65 66 65 66 66 66 68 70 67 69 67 45 66 67 66 66 66 65 64 63 62 60 62 63
57 63 63 59 62 63 63 63 66 71 71 71 62 64 65 69 68 64 66 70 69 64 60 55 51 54 60 66 67 69 67 67 63 59 58 60 60 62 67 66 65 66 66 65 40 52 60 62 63 64 63 65 64 66
59 66 61 61 60 60 67 72 71 72 73 71 71 70 70 67 63 69 70 67 64 59 56 52 56 63 65 65 65 65 69 70 70 68 63 62 64 66 66 65 65 66 67 66 64 62 42 56 53 63 62 64 66 62
68 65 61 62 62 68 71 73 72 71 71 70 69 67 65 64 67 70 66 62 57 52 58 58 58 66 67 68 67 65 65 69 69 68 70 72 69 67 66 66 66 66 66 66 66 66 65 63 66 63 61 61 59 57
64 62 62 60 65 68 69 69 68 68 67 64 64 68 68 65 59 67 67 66 63 56 51 55 63 67 70 73 74 72 51 74 71 69 67 68 69 68 68 68 67 66 65 65 65 66 64 62 64 62 61 59 59 59
64 66 65 65 64 62 66 65 64 63 65 62 62 66 66 63 59 66 72 72 69 65 61 62 68 67 62 65 68 70 59 71 64 51 51 51 52 59 67 69 67 66 65 65 66 66 63 61 62 60 60 59 58 58

GFSWCAN_sfc_temp_102.txt.gz
Temp
56 56 56 56 56 56 57 57 58 59 59 58 59 59 59 59 59 63 78 81 75 73 77 79 79 73 74 74 68 70 70 70 69 61 61 59 56 57 51 56 57 56 54 53 56 52 49 72 69 61 65 73 75 76
56 56 56 56 56 56 56 57 57 59 58 58 59 59 59 59 59 59 75 83 81 74 76 82 82 82 79 78 73 75 71 69 70 65 63 61 54 57 56 47 64 52 61 55 58 57 67 72 68 72 74 71 72 71
55 55 55 55 55 56 56 56 57 58 59 58 58 59 59 59 59 60 74 80 79 75 78 77 74 80 86 84 86 69 73 72 69 73 66 62 52 63 52 54 59 63 67 60 61 65 67 70 71 72 73 71 73 73
55 55 55 55 55 56 56 56 57 58 59 58 58 58 59 59 58 57 73 79 78 76 69 66 84 77 83 84 81 81 77 77 74 73 66 61 58 65 59 61 58 63 63 60 60 64 67 68 70 71 71 73 72 73
54 54 55 55 55 55 55 56 57 58 58 58 58 58 58 59 57 64 75 82 82 71 65 65 77 80 82 80 78 78 76 72 69 64 62 57 60 58 62 62 57 63 61 55 54 65 64 67 71 72 69 69 71 70
54 54 54 54 55 55 55 55 57 58 58 58 57 58 58 58 57 70 66 81 80 79 65 64 75 71 76 75 71 68 65 64 67 57 59 62 60 56 51 50 62 66 67 65 62 67 68 70 72 74 70 70 70 70
54 54 54 54 55 55 55 55 57 58 57 57 57 57 58 57 65 68 65 69 63 75 65 59 63 73 72 71 70 68 67 62 63 59 54 53 50 54 48 45 60 62 64 64 65 66 63 68 66 71 72 72 70 71
54 54 54 55 55 55 55 56 57 57 57 56 56 57 57 56 58 66 73 64 65 73 71 56 59 66 74 63 62 66 59 61 60 58 57 53 50 45 39 53 58 61 62 61 63 64 65 63 68 68 70 70 68 67
54 54 54 55 55 55 55 56 57 56 56 56 57 57 66 65 72 72 64 64 77 70 59 63 58 55 73 65 64 66 62 52 64 56 55 55 48 38 49 55 57 61 61 59 61 62 63 61 62 65 65 66 65 65
54 54 54 54 54 55 56 56 56 56 56 56 62 68 64 71 58 64 68 69 69 73 73 62 72 61 69 65 62 57 62 54 47 54 59 54 51 58 62 64 65 62 61 63 58 56 60 60 62 61 59 62 64 65
54 54 54 54 54 55 56 56 55 55 53 68 69 66 73 62 72 71 64 64 67 62 69 69 68 63 72 62 59 59 55 56 46 53 53 50 51 59 65 65 67 65 64 63 62 63 63 59 59 62 61 63 62 63
54 53 53 53 54 55 56 55 55 59 71 61 64 72 73 66 66 60 61 66 64 59 69 65 61 69 67 70 64 63 54 55 48 62 52 45 59 61 65 66 67 66 66 64 65 63 63 61 62 61 61 61 55 62
53 53 53 55 55 56 56 55 55 55 58 74 67 61 63 63 46 55 55 61 62 69 70 68 62 65 65 66 61 60 52 51 64 53 45 53 61 64 65 66 66 67 67 66 65 63 64 65 62 64 62 61 59 58
54 54 55 55 56 56 56 55 55 59 63 63 57 42 56 57 59 63 68 67 72 73 71 70 64 62 66 56 61 52 58 59 51 45 49 59 61 64 66 67 66 64 63 65 64 65 64 63 60 62 63 59 56 55
55 56 56 56 56 56 55 54 55 65 67 62 61 48 59 66 70 74 75 73 74 76 74 69 66 66 62 59 61 58 53 49 52 51 56 61 63 64 64 65 64 64 64 64 65 65 64 63 63 62 64 64 61 56
56 54 60 55 55 55 54 55 62 69 68 66 66 62 65 65 68 74 73 73 77 74 74 72 64 61 58 60 56 55 52 50 58 61 66 63 62 63 63 64 64 63 62 64 64 63 63 62 60 60 62 63 63 57
52 66 54 54 54 54 55 63 70 64 64 65 66 73 70 70 72 70 76 76 78 73 66 66 60 58 67 60 57 63 57 62 66 67 66 62 62 62 63 64 63 62 62 62 62 62 60 60 59 58 56 58 60 61
67 59 54 54 57 60 67 64 67 65 61 67 65 68 72 76 74 73 77 79 74 72 71 66 70 62 58 56 57 63 64 67 69 67 66 63 63 64 65 62 62 63 62 62 61 59 59 58 56 53 53 55 56 56
60 61 53 54 58 61 62 66 67 61 65 70 73 75 76 76 78 79 80 78 77 77 73 69 63 61 62 64 59 54 65 65 66 67 63 63 64 64 64 64 64 62 62 61 61 61 61 58 56 54 55 56 53 53
54 56 54 54 54 63 62 64 70 64 62 68 72 73 74 75 78 78 78 77 76 72 66 64 64 67 58 54 55 54 58 65 68 67 63 61 66 64 63 65 64 64 64 62 62 57 62 60 55 55 55 55 55 54
53 61 55 58 63 64 65 66 62 65 66 66 73 73 73 77 75 75 75 79 73 70 67 58 56 56 56 57 61 64 65 65 66 68 65 65 65 65 64 67 66 68 66 63 62 59 55 58 55 55 57 55 56 58
66 55 67 61 64 67 65 71 68 67 65 68 70 71 70 67 68 63 64 69 71 62 54 56 58 68 56 66 68 69 66 66 68 66 59 61 66 61 66 69 69 67 66 64 64 62 61 61 65 62 60 62 58 65
53 62 67 68 61 54 54 72 65 68 63 66 71 68 68 69 73 75 69 74 74 68 61 63 68 68 66 67 67 64 59 63 65 68 69 71 71 70 71 70 70 68 65 64 65 63 64 51 59 61 63 57 58 65
54 64 62 61 61 53 66 60 68 67 67 64 63 61 67 64 64 58 60 58 55 56 71 71 72 67 65 64 62 60 61 66 67 71 72 71 70 68 71 71 71 70 68 68 66 65 64 62 57 64 64 64 63 64
51 51 54 42 64 63 61 62 64 64 59 66 67 68 62 56 52 63 65 65 56 62 72 73 73 68 59 60 60 56 65 69 66 69 72 73 72 71 69 70 70 69 72 67 64 64 64 63 64 62 58 61 57 62
43 59 48 63 65 62 64 61 62 60 66 57 63 67 61 59 62 60 56 51 53 66 71 70 70 67 61 57 54 57 66 73 73 71 71 74 74 72 68 66 66 65 71 70 66 64 64 63 60 62 61 60 48 60
46 59 67 72 69 69 67 70 71 68 60 61 64 56 51 54 61 60 56 62 69 73 73 74 72 66 63 63 60 67 73 74 72 72 74 75 75 74 73 68 66 67 71 71 69 67 64 64 64 64 63 64 65 64
63 65 60 67 68 70 65 66 66 66 68 63 55 57 63 63 53 55 69 74 74 73 72 71 70 70 68 68 70 73 73 74 73 74 74 74 75 74 73 71 67 50 68 67 69 69 67 66 66 65 64 64 65 64
62 66 66 60 63 66 68 67 68 73 73 57 57 59 54 62 67 64 69 74 75 71 68 69 70 74 73 74 74 75 74 73 68 64 64 65 66 68 72 71 68 69 70 66 44 56 61 63 64 64 66 66 67 68
63 70 61 61 61 62 69 75 75 81 81 80 79 77 62 59 59 71 75 74 72 71 71 71 71 72 72 72 71 72 75 75 74 71 67 67 69 73 72 71 70 70 70 69 68 65 50 60 57 64 63 65 66 65
66 66 62 64 63 68 74 80 81 81 80 76 65 59 57 60 71 75 76 76 75 74 72 70 64 71 74 73 71 68 69 75 74 73 73 75 74 73 72 72 72 71 71 70 69 68 66 64 65 63 64 64 63 61
67 63 61 62 67 75 79 76 75 75 58 54 54 61 63 62 62 66 76 75 70 68 60 68 66 71 76 75 75 75 51 76 75 75 73 75 74 73 73 73 73 72 70 69 69 69 67 66 66 66 64 63 63 62
70 72 71 71 70 70 74 73 69 59 58 56 59 64 60 65 63 72 79 78 75 73 72 70 72 69 71 72 72 73 62 75 66 51 50 50 51 60 72 74 73 71 69 69 69 69 67 66 66 64 64 63 62 63

GFSWCAN_sfc_temp_105.txt.gz
Temp
56 56 56 56 56 57 56 57 57 58 59 59 59 59 59 59 59 58 65 71 65 62 68 74 75 65 65 63 56 61 60 60 56 50 50 46 44 47 43 47 45 45 43 40 43 39 41 64 63 52 55 57 59 58
55 56 56 56 56 56 56 56 57 58 58 59 59 59 59 59 58 58 64 74 72 63 67 77 77 77 74 72 63 63 59 60 57 53 53 51 46 48 47 38 52 41 48 44 46 45 56 60 59 61 61 59 58 59
55 55 55 55 56 56 56 56 56 57 58 59 59 59 59 58 58 58 64 67 68 65 68 70 69 75 79 77 78 59 61 64 60 63 53 53 47 46 40 44 49 53 56 48 49 55 57 60 62 63 64 60 63 62
55 55 55 55 55 56 56 56 56 57 58 58 58 58 58 58 58 58 64 70 68 66 60 64 79 72 80 78 76 73 68 68 65 61 55 52 48 53 45 49 46 52 52 51 50 53 57 61 62 62 64 65 66 65
54 54 54 55 55 55 56 56 56 57 58 58 58 58 58 58 57 59 66 71 74 64 58 62 73 76 75 71 71 69 66 62 59 56 53 49 53 49 52 50 47 50 45 45 44 53 53 54 59 64 62 61 63 63
54 54 54 54 54 55 55 55 56 57 58 58 58 58 58 57 57 63 64 70 71 70 61 56 68 68 70 70 67 64 63 60 59 51 50 51 52 47 43 42 54 57 56 52 50 56 57 59 63 65 62 63 64 62
54 54 54 54 55 55 55 55 56 58 57 57 57 57 57 56 58 63 60 62 59 66 62 57 56 67 70 68 65 62 62 58 56 53 49 50 47 47 43 39 51 53 56 56 58 56 54 57 55 61 65 66 64 64
54 54 54 54 55 55 55 56 57 57 57 57 57 56 56 56 56 62 67 58 59 64 64 54 56 59 69 59 56 61 56 57 54 52 51 49 47 44 38 46 51 54 56 55 55 57 57 56 58 57 60 64 59 61
54 54 54 55 55 55 55 56 57 57 56 57 57 57 60 61 65 65 65 63 66 64 57 58 52 49 66 60 59 58 57 48 56 50 50 49 43 33 42 47 51 54 55 53 56 56 58 57 55 56 57 58 58 59
54 54 55 54 55 55 56 56 56 56 56 57 58 62 61 65 61 64 65 63 63 65 63 57 63 56 61 59 55 54 54 48 43 49 54 47 43 50 52 54 54 56 57 56 51 53 55 55 56 56 56 58 58 57
54 54 54 54 55 56 56 56 56 55 53 62 61 63 68 62 67 64 60 58 59 58 62 60 62 58 65 55 53 55 49 50 42 48 47 44 44 52 57 57 58 59 59 58 58 57 57 55 54 54 54 57 56 57
53 53 53 54 55 56 56 56 56 56 64 57 56 64 70 63 61 57 57 60 59 56 62 58 60 61 60 62 55 54 50 50 43 55 49 40 50 55 58 60 61 59 60 61 60 58 58 58 58 55 54 53 52 53
53 53 54 55 56 56 56 56 56 55 56 66 62 61 58 57 43 51 51 56 56 62 63 61 57 60 59 60 55 53 48 46 57 47 39 45 52 57 57 60 60 61 61 61 62 60 59 60 59 54 52 55 54 51
55 54 54 55 56 56 56 56 56 57 59 61 56 39 52 52 56 59 60 62 66 66 65 63 59 58 59 54 55 50 53 54 47 40 45 50 52 52 56 60 59 59 59 59 59 61 59 59 57 55 54 54 53 49
55 55 55 56 56 56 56 55 55 59 61 60 59 46 56 62 65 67 67 68 68 69 66 63 61 60 56 54 56 54 50 46 48 45 51 54 53 53 56 59 58 58 58 57 60 57 56 56 54 53 54 54 55 51
54 52 58 56 55 55 55 55 58 63 64 62 62 59 64 62 63 67 67 66 71 67 67 65 59 57 56 56 53 52 51 46 51 54 56 56 55 56 56 58 57 57 57 56 55 56 55 53 52 52 53 53 53 52
50 61 54 54 54 54 54 55 63 61 61 61 61 68 66 65 63 67 69 68 70 67 60 62 56 55 60 55 54 57 52 55 57 57 59 56 55 55 57 56 57 57 55 54 54 53 53 54 54 52 49 50 51 52
59 58 54 54 55 58 61 57 62 63 58 61 59 64 66 68 66 69 69 70 68 65 64 59 63 57 54 52 51 51 53 57 59 57 57 57 57 58 58 56 57 56 55 54 54 54 54 51 50 48 49 49 50 49
57 58 54 54 56 57 60 63 64 57 61 64 67 69 68 68 69 71 72 67 69 70 67 63 58 54 52 52 50 50 52 54 54 56 57 58 58 58 57 57 57 56 55 54 54 53 52 52 50 50 49 49 47 47
54 54 54 54 53 57 59 61 68 61 59 65 68 67 67 67 70 72 72 72 68 66 61 57 55 52 52 54 54 54 57 57 55 51 53 54 59 58 57 57 55 55 55 55 55 51 53 51 50 50 49 50 49 49
53 60 55 56 58 57 60 62 59 62 63 63 68 67 66 69 67 70 67 61 65 64 52 53 54 56 58 56 55 56 59 56 51 55 54 54 59 60 58 58 58 58 58 56 55 51 52 52 51 52 52 50 52 53
63 55 63 56 58 63 61 65 62 63 62 64 65 66 63 63 66 67 66 65 59 51 54 53 54 55 57 58 59 60 58 56 56 55 55 58 59 59 59 61 61 59 58 56 57 55 55 56 54 52 54 54 54 55
56 59 63 64 57 52 50 66 60 63 58 63 66 62 62 64 65 62 58 54 51 55 55 56 57 58 58 57 58 59 58 57 57 58 61 63 63 61 61 61 61 59 57 56 58 57 56 52 54 55 53 51 51 52
56 59 59 58 58 48 64 61 65 63 64 62 61 59 64 65 65 62 58 52 53 55 54 55 59 60 58 58 56 55 56 59 62 63 64 63 62 60 62 63 63 63 61 61 60 58 57 56 53 56 51 49 50 54
46 46 50 38 60 58 58 60 60 60 58 62 60 59 56 57 56 55 56 53 57 56 56 59 57 61 58 58 55 54 57 62 61 61 61 65 64 64 62 63 62 61 63 61 58 58 57 57 58 57 57 56 54 55
39 54 45 59 60 59 61 59 61 59 56 57 62 62 60 58 53 48 51 56 57 61 63 65 58 61 59 58 54 54 61 66 65 63 63 67 66 64 61 59 59 58 63 63 60 59 58 58 58 58 57 56 51 54
43 54 63 68 65 65 63 65 67 57 49 56 59 54 52 50 53 52 57 56 58 63 66 67 66 63 61 61 63 62 65 67 65 64 66 67 68 65 65 62 60 60 63 65 63 62 60 60 59 60 59 59 59 59
59 63 58 64 63 66 62 62 62 62 64 66 63 55 52 50 50 55 58 63 65 66 67 68 68 68 65 66 67 67 67 68 68 68 68 68 68 66 64 62 60 50 58 61 63 63 62 61 61 61 60 59 58 59
59 64 64 59 62 63 64 63 64 68 71 63 52 50 56 59 60 65 69 70 71 69 66 66 67 70 69 68 69 70 70 68 64 61 60 60 61 63 65 64 63 63 61 57 47 54 58 59 59 59 61 60 60 60
60 67 62 62 60 59 65 70 68 74 68 64 58 60 62 63 62 67 69 69 68 67 68 68 68 69 68 68 68 68 70 71 69 66 63 62 64 67 66 65 64 65 63 62 61 58 50 56 53 58 58 59 59 59
68 67 63 63 61 65 69 72 74 68 68 63 63 59 57 59 68 71 71 72 72 71 69 67 66 68 69 70 67 65 66 70 69 67 68 69 70 67 66 66 67 66 65 64 62 62 61 59 60 59 60 60 58 56
65 62 61 59 62 68 72 70 68 60 62 57 53 56 58 58 60 66 73 72 71 68 59 67 66 67 72 72 71 69 58 71 69 69 70 69 67 67 68 68 68 67 65 65 64 64 63 63 61 62 61 60 60 59
65 66 66 65 63 61 68 70 64 58 53 51 53 56 60 62 61 68 75 74 72 71 69 69 69 68 69 70 70 69 61 71 59 50 51 53 55 59 67 69 67 66 66 64 64 64 64 63 62 61 60 59 59 60

GFSWCAN_sfc_temp_111.txt.gz
Temp
56 56 56 56 57 56 56 56 57 57 57 58 58 59 59 58 58 53 55 55 56 51 54 61 61 55 53 49 46 50 50 50 45 41 39 37 34 37 35 40 38 39 35 33 34 33 35 57 58 52 53 48 53 56
56 55 55 55 55 56 56 56 56 56 57 57 58 58 58 58 58 56 55 58 57 55 57 59 61 61 61 60 52 46 48 46 46 41 40 39 38 38 36 31 42 37 41 39 39 39 49 52 50 53 54 51 52 51
55 55 55 55 55 55 56 56 56 56 57 57 58 58 58 57 57 55 50 51 55 54 56 55 55 62 63 59 60 52 49 51 48 46 41 40 40 39 34 37 39 43 45 41 42 47 49 53 55 55 54 53 53 54
55 55 55 55 55 55 55 56 56 56 57 57 57 58 57 57 57 56 52 52 54 52 48 51 64 58 64 62 61 56 56 52 49 47 39 38 39 42 38 41 39 44 44 41 41 45 49 54 54 54 56 56 56 56
54 54 54 55 55 55 55 55 55 56 57 57 57 57 57 57 56 51 50 53 54 55 48 49 55 58 55 59 59 57 53 49 45 44 41 39 39 40 39 40 37 42 43 39 39 46 45 47 51 56 56 56 56 57
54 54 54 54 54 55 55 55 55 56 56 57 57 56 56 56 55 55 52 55 54 54 51 45 52 52 57 58 55 53 50 46 44 42 40 40 42 40 36 35 44 44 46 46 46 47 48 52 53 55 55 55 57 56
54 54 54 54 54 55 55 55 55 56 56 56 56 56 56 55 51 54 53 56 52 53 51 45 46 53 57 53 50 49 48 44 44 39 39 39 39 39 35 30 44 45 48 47 49 50 48 52 49 53 55 57 58 57
54 54 54 55 55 55 55 55 56 56 56 56 55 55 55 54 54 54 55 54 53 53 52 43 45 49 53 47 46 46 44 43 42 39 39 38 37 35 30 39 42 45 47 49 50 49 49 49 50 53 53 54 54 54
54 54 54 55 55 55 55 56 56 55 55 55 56 56 53 53 52 54 62 58 53 55 47 44 42 41 51 45 44 45 42 39 41 39 38 39 35 31 37 40 43 46 47 49 49 49 49 48 48 50 51 52 50 51
54 54 54 54 55 55 55 55 55 55 55 55 53 54 50 54 61 60 55 52 52 50 48 44 46 45 49 43 42 42 39 37 32 39 41 36 35 40 42 44 46 48 49 48 44 43 44 45 48 48 49 51 51 55
54 54 54 55 55 55 55 55 55 54 55 53 52 51 54 59 55 51 48 47 46 45 45 46 47 46 50 45 42 42 38 37 33 38 38 32 34 42 48 47 47 48 49 50 49 49 50 49 48 48 49 51 51 53
53 54 54 55 55 55 55 55 55 52 50 50 49 50 51 51 48 47 45 46 46 46 47 48 48 49 48 47 44 41 39 39 35 42 39 30 39 45 48 50 51 49 51 52 52 52 52 52 51 49 49 49 49 52
54 54 54 55 55 55 55 55 55 54 52 51 51 50 48 47 39 43 42 43 43 47 48 48 47 48 47 46 42 41 39 37 43 38 33 38 42 47 48 50 52 52 52 53 53 53 53 53 52 50 49 49 49 48
53 54 55 55 55 55 55 55 55 53 53 50 48 37 43 42 44 44 47 53 54 51 48 47 44 46 44 44 42 40 42 42 38 31 37 41 44 48 49 51 51 51 52 52 52 53 52 51 51 50 49 48 47 46
53 53 53 55 55 55 55 55 55 50 52 50 48 40 44 49 49 55 56 52 54 51 52 48 46 46 42 44 42 42 41 39 39 37 41 46 47 47 48 50 49 49 49 47 48 49 51 52 52 51 49 48 47 46
53 54 54 55 55 55 54 54 51 52 51 50 49 46 49 48 49 51 51 52 53 50 50 50 45 44 45 43 42 42 42 39 42 43 44 46 45 47 49 51 51 49 48 46 47 52 51 50 48 46 45 45 45 45
53 54 54 53 54 54 53 53 52 51 51 50 46 49 51 49 49 52 54 54 51 54 49 48 47 47 46 42 41 44 42 45 48 47 48 51 50 50 50 50 52 49 46 45 44 44 44 45 44 43 42 43 42 43
54 54 55 54 52 53 52 51 52 53 50 48 45 48 51 51 51 53 55 58 56 52 51 50 51 45 44 43 43 45 49 50 51 51 51 51 50 51 51 50 51 47 45 45 45 43 43 43 41 41 41 41 41 41
54 53 54 54 52 50 49 51 50 48 51 50 49 50 51 53 53 56 56 56 56 54 55 49 51 45 45 45 48 49 48 49 49 50 50 51 52 51 52 50 50 45 45 44 43 42 42 42 41 41 41 40 40 40
53 53 53 54 54 49 49 50 52 49 48 51 49 49 51 53 55 55 55 54 51 54 53 52 48 48 48 50 51 51 50 52 50 48 48 49 51 51 49 49 48 44 43 42 42 42 41 41 41 41 42 42 41 41
52 51 53 50 48 48 47 47 50 50 52 50 51 51 52 52 53 54 51 51 49 48 48 49 50 53 53 53 54 52 51 51 50 51 51 48 51 49 48 48 44 43 43 42 42 41 42 42 42 42 43 43 43 43
50 54 48 49 47 49 46 49 49 52 50 51 50 52 50 49 51 51 51 49 49 50 50 50 50 49 50 50 52 51 52 53 51 48 51 48 47 46 45 46 44 43 43 44 44 43 43 43 42 42 42 43 44 43
53 51 49 50 47 43 44 51 49 52 48 50 52 50 49 50 51 52 49 48 49 51 51 51 51 51 50 51 51 49 50 51 51 54 51 47 47 47 47 46 46 46 44 43 44 44 44 43 43 44 43 43 43 43
53 50 48 47 46 41 49 48 50 51 51 50 50 49 51 50 51 49 47 46 49 50 50 51 51 47 48 48 49 48 53 52 54 53 52 51 46 47 48 48 47 48 50 47 44 44 44 44 44 44 44 45 45 44
42 44 42 35 48 47 48 49 50 48 48 51 50 49 48 49 48 48 46 48 49 51 51 51 51 49 47 48 50 52 54 54 51 52 51 49 48 45 45 45 45 46 48 47 44 45 44 44 44 45 46 46 45 46
38 47 42 47 48 47 49 51 51 50 49 49 50 51 51 49 48 46 46 48 51 52 52 51 50 48 48 51 52 49 55 54 51 50 49 50 50 49 46 45 44 45 46 51 48 47 46 45 45 47 47 48 44 46
40 45 48 51 49 51 51 52 53 50 49 48 48 49 48 46 46 47 50 51 52 53 51 51 51 50 54 54 55 56 55 48 49 50 49 48 51 53 54 50 48 52 49 51 51 51 49 48 48 49 48 47 47 48
47 48 47 50 49 52 52 51 50 50 49 48 49 47 47 48 47 49 51 53 53 52 51 50 49 49 49 51 56 55 50 48 49 49 50 50 45 47 49 50 49 46 53 54 53 51 50 50 49 49 49 49 49 48
45 48 48 47 50 51 49 50 51 51 52 50 48 48 49 51 52 52 53 53 51 50 49 49 50 49 50 49 50 49 50 50 51 48 47 44 45 47 45 46 46 47 48 49 46 50 52 51 50 50 51 50 49 49
45 49 47 49 48 48 52 55 54 57 53 52 51 51 50 52 53 54 56 52 51 51 51 51 51 51 50 49 49 48 48 49 51 51 47 48 49 49 46 47 48 47 48 49 49 47 45 48 47 48 48 47 46 46
49 48 48 49 49 53 56 56 54 53 53 53 53 53 54 52 57 58 56 54 53 51 52 50 49 50 51 50 49 48 49 51 50 53 53 51 49 50 48 49 48 47 48 49 48 49 49 49 49 48 48 48 48 47
49 49 49 48 49 54 55 53 51 50 50 49 49 51 54 52 51 54 54 55 53 51 50 50 51 52 52 51 51 53 50 53 54 54 52 52 54 53 52 50 49 49 49 50 50 50 51 50 49 49 49 49 49 50
51 53 55 55 50 50 51 51 49 48 48 47 48 51 53 53 51 55 56 56 55 54 53 53 53 53 54 55 55 53 51 54 51 48 48 48 48 49 50 50 51 52 51 50 50 51 52 52 50 51 51 51 50 49

GFSWCAN_sfc_temp_114.txt.gz
Temp
56 56 56 56 56 56 56 56 56 57 57 58 59 58 59 59 58 52 55 53 54 50 52 57 58 52 51 47 45 49 48 49 43 39 38 35 34 36 34 38 37 38 34 33 33 34 36 52 55 49 51 52 55 56
55 55 55 55 55 56 56 56 56 56 57 57 59 58 58 58 58 56 54 55 54 54 55 56 57 57 57 57 50 44 48 45 45 40 38 37 37 36 35 32 40 36 40 38 39 38 47 50 50 52 52 54 54 53
55 55 55 55 55 55 56 56 56 56 57 57 58 58 58 57 57 55 51 50 54 52 53 54 54 61 59 56 57 51 47 49 45 45 40 38 39 37 33 36 38 42 43 40 42 45 47 51 55 55 54 53 54 54
54 54 55 55 55 55 55 56 56 56 56 57 58 58 57 57 57 56 52 51 53 51 47 50 61 55 59 57 57 54 53 49 46 44 38 37 38 40 37 38 38 42 42 41 41 45 49 52 52 53 54 54 55 56
54 54 54 55 55 55 55 55 56 56 56 57 57 57 57 57 56 51 49 51 52 55 47 46 52 54 53 55 56 54 50 47 44 43 40 38 38 39 38 39 37 42 42 39 39 46 47 48 51 55 53 53 54 55
54 54 54 54 54 54 55 55 55 56 56 57 57 57 56 56 55 53 51 54 52 53 51 44 50 50 54 55 53 50 47 44 42 41 38 39 40 39 35 34 43 43 45 45 45 47 48 51 53 54 55 55 55 55
54 54 54 54 54 55 55 55 55 56 56 56 56 56 56 55 50 53 52 55 52 52 50 44 44 52 55 50 47 47 45 42 42 38 38 38 38 38 34 31 44 45 46 48 49 51 49 52 50 53 55 56 58 57
54 54 54 54 55 54 55 55 55 56 56 56 55 55 55 54 53 53 54 54 53 52 51 42 43 47 50 46 45 43 42 41 40 38 38 37 36 34 31 39 42 45 46 48 50 50 50 50 51 52 54 55 54 54
54 54 54 54 55 55 55 56 56 56 56 55 55 55 52 52 51 53 60 57 52 54 46 43 41 40 49 42 42 43 41 38 39 37 37 38 36 29 38 40 42 45 47 48 49 49 50 49 50 51 52 52 51 51
54 54 54 54 55 55 55 55 55 55 55 55 52 52 49 51 60 59 54 51 51 48 47 44 44 43 47 41 40 41 38 35 31 38 39 36 34 40 42 43 45 47 48 49 47 44 46 45 49 49 50 52 52 52
53 54 54 55 55 55 55 55 55 54 55 51 51 49 52 57 53 49 46 46 45 44 43 44 45 45 47 44 41 40 37 35 33 37 37 32 33 40 46 45 45 47 48 49 50 49 49 49 49 49 50 52 52 52
53 53 54 55 55 55 55 55 54 51 49 50 51 50 51 50 47 45 44 44 43 44 44 45 46 47 45 45 43 40 38 37 35 41 38 30 39 44 47 48 49 47 49 51 51 52 51 51 51 50 49 50 51 51
53 54 53 54 55 55 55 55 55 54 51 51 51 49 47 45 38 42 40 42 41 45 45 45 45 45 44 44 40 40 39 36 41 37 32 38 42 46 47 48 50 49 50 51 52 52 52 52 52 51 50 50 50 50
53 53 54 54 54 55 55 55 55 53 52 50 48 37 42 40 42 43 44 46 50 48 46 45 42 45 42 43 40 40 41 40 36 31 38 42 44 49 49 51 52 51 52 52 52 53 52 51 52 52 52 51 50 48
53 53 53 54 55 56 55 55 55 51 52 49 48 41 43 47 47 49 51 49 50 49 48 46 44 45 41 42 40 41 39 37 38 37 40 44 45 45 49 50 50 51 49 49 50 49 52 52 52 50 49 48 48 47
53 53 54 54 54 54 54 54 51 51 51 49 48 45 47 46 47 48 51 49 49 47 48 48 43 43 43 42 40 40 40 38 41 43 46 47 46 48 48 49 50 50 48 49 48 49 52 52 49 47 46 46 46 46
53 54 54 54 54 54 54 53 54 51 50 49 46 47 47 48 48 50 52 55 51 51 47 46 45 45 44 41 40 42 41 43 45 48 49 48 48 48 49 49 51 51 49 48 46 46 45 45 45 44 44 45 44 45
52 53 54 54 52 52 50 49 52 52 48 48 44 46 47 50 49 50 50 51 53 50 49 49 51 45 44 43 42 46 47 50 51 50 50 49 48 49 51 50 51 50 49 46 45 44 44 44 43 42 42 43 43 43
54 53 54 54 52 50 49 49 49 46 50 50 47 48 49 51 51 52 52 55 56 52 50 49 50 43 44 46 48 46 48 49 49 49 51 49 50 51 52 51 48 46 45 44 43 43 43 43 44 43 43 42 42 43
53 53 53 54 54 49 47 47 50 46 44 50 48 48 49 50 51 52 52 51 50 51 48 47 46 47 46 50 51 52 51 51 50 48 48 49 50 51 50 49 46 45 43 43 43 42 43 43 43 44 44 44 45 45
52 51 53 51 48 47 46 45 46 47 47 47 50 51 52 49 50 50 51 49 48 47 46 46 48 52 51 52 53 52 51 49 50 49 49 48 50 51 50 47 44 43 43 43 43 43 43 45 45 45 46 46 46 47
51 53 47 48 46 48 47 46 45 48 46 48 48 51 49 47 48 49 50 49 48 48 49 49 49 50 50 50 51 51 52 51 52 51 49 50 48 46 45 45 45 44 44 45 45 45 45 45 45 45 46 47 46 47
52 51 48 48 47 44 43 48 46 48 46 47 50 48 47 48 49 51 48 48 48 49 49 50 51 51 50 50 50 51 52 50 47 49 51 48 47 47 47 46 47 47 45 44 45 46 46 44 45 46 47 47 47 47
52 48 46 45 44 40 46 45 47 47 48 47 47 47 49 48 51 50 49 48 48 49 49 50 50 48 49 49 48 48 48 48 48 51 50 47 47 47 48 48 47 50 50 47 47 46 46 46 44 47 47 47 48 48
44 43 42 36 46 47 45 46 47 46 46 48 48 49 48 48 46 48 47 47 48 49 50 51 50 49 48 47 47 48 52 51 50 52 53 51 48 46 46 47 47 47 47 47 45 47 47 47 47 47 47 48 48 49
36 45 41 45 46 44 46 48 49 46 47 47 49 48 49 47 46 45 47 48 49 51 51 51 50 48 46 48 48 50 53 52 50 51 50 49 50 50 48 47 48 48 48 50 49 49 48 48 48 49 48 48 44 49
39 45 46 47 47 47 48 51 51 47 47 47 48 48 47 45 45 47 49 50 51 52 51 50 50 49 48 48 52 54 50 50 51 51 50 50 51 52 52 51 50 51 49 51 52 52 51 50 50 50 50 51 50 51
48 46 43 47 46 48 48 48 49 48 48 48 49 47 47 47 47 49 51 53 53 51 50 49 47 48 49 53 56 51 47 46 47 47 47 48 46 49 51 51 51 44 51 53 54 53 53 52 51 51 51 51 51 52
44 47 47 45 47 47 47 48 50 50 51 49 48 47 49 50 52 52 53 52 52 53 51 50 49 49 49 49 49 48 49 50 52 51 51 49 50 52 48 50 49 49 50 51 45 50 53 53 53 52 53 53 53 52
44 47 45 46 46 47 50 50 51 53 52 51 51 50 50 51 53 53 52 51 52 53 51 50 50 51 51 51 50 50 49 50 51 52 50 50 51 52 50 50 50 49 49 51 51 49 44 51 48 51 51 51 51 51
47 45 46 47 47 51 54 54 53 52 52 51 52 50 50 51 54 56 54 53 51 51 51 51 50 50 51 50 50 51 51 52 51 52 53 52 52 51 51 51 51 50 50 51 51 51 52 52 52 52 52 52 52 50
47 47 47 46 47 52 54 52 51 49 49 49 48 50 51 53 52 52 53 53 53 52 51 51 51 53 54 54 53 53 49 55 53 53 54 51 51 52 52 51 51 51 52 52 52 53 54 53 52 52 52 52 52 53
48 47 49 50 48 49 49 50 48 47 47 46 48 50 53 54 52 55 55 55 55 55 53 53 54 53 53 52 53 54 50 55 52 47 46 46 47 48 52 52 51 53 53 52 53 53 53 53 52 52 53 53 53 53

GFSWCAN_sfc_temp_117.txt.gz
Temp
55 56 56 56 56 56 56 56 57 57 57 58 58 59 59 59 58 57 65 62 65 64 64 65 67 63 62 62 61 60 61 61 61 56 55 52 49 51 48 52 52 54 53 51 49 49 46 61 64 58 60 64 63 65
55 56 56 56 56 56 56 56 56 56 57 58 58 58 58 58 58 57 66 64 63 67 66 66 68 68 67 68 66 60 61 58 61 56 54 51 50 49 48 47 53 49 56 55 55 56 58 61 60 64 64 62 63 65
54 55 55 55 55 56 56 56 56 56 57 57 58 58 58 57 57 57 64 61 67 67 66 69 66 70 71 67 68 64 61 60 58 56 56 53 50 52 48 49 52 54 54 55 53 57 60 62 64 64 62 62 63 65
54 55 55 55 55 55 56 56 56 56 56 57 58 58 58 57 56 57 65 62 65 64 62 63 69 67 68 69 67 66 64 60 60 61 56 58 55 53 52 51 51 56 55 54 54 57 60 63 63 63 62 63 64 64
54 54 55 54 55 55 55 55 56 56 56 57 58 57 57 57 56 59 63 63 64 67 61 62 65 67 67 67 65 65 65 62 62 60 59 56 54 52 53 52 51 55 55 53 55 58 59 59 61 64 63 62 64 64
54 54 54 54 54 55 55 55 55 56 56 56 57 57 57 56 55 65 65 66 65 65 64 58 63 64 66 65 63 60 60 58 59 55 51 51 49 52 50 49 55 57 57 58 58 59 60 61 62 64 65 65 63 65
54 54 54 54 55 55 55 55 55 55 56 56 56 56 56 55 61 64 63 63 57 65 65 58 59 64 64 63 62 62 59 57 59 54 54 54 52 53 50 46 57 57 58 57 59 61 59 61 61 64 65 65 63 65
54 54 54 54 55 55 55 55 55 56 56 56 56 55 55 54 56 63 65 57 60 65 64 56 57 59 63 61 60 57 59 59 54 53 52 54 50 49 43 54 54 56 58 58 60 61 61 62 63 63 65 65 65 65
54 54 54 54 55 55 55 56 56 56 56 56 56 56 60 62 62 63 60 59 64 65 58 57 54 52 62 57 58 58 57 53 53 53 53 52 46 38 53 55 54 56 58 60 60 61 61 61 60 61 62 63 63 63
53 53 54 54 55 55 55 55 55 55 55 55 58 61 58 61 60 62 63 62 63 62 60 57 59 57 61 57 55 56 55 50 47 52 52 49 48 55 55 56 57 59 60 61 58 57 58 58 60 61 61 62 62 63
53 53 53 54 55 55 55 55 55 55 55 59 58 58 61 58 63 59 56 56 57 55 58 59 59 57 60 57 56 54 51 51 46 50 49 48 47 55 58 58 57 59 60 62 64 63 63 62 61 61 61 61 62 62
53 53 52 53 54 55 55 55 54 57 59 57 58 57 60 59 56 54 52 53 52 54 56 57 57 60 57 59 57 52 51 50 45 53 49 43 55 58 58 59 59 59 60 61 61 62 62 61 62 62 62 61 61 61
53 53 52 53 53 55 55 55 55 54 53 58 59 56 56 53 42 48 46 50 51 56 56 56 55 59 55 58 54 54 49 49 53 49 43 52 57 57 57 60 60 60 60 61 61 62 62 61 61 61 61 61 61 61
53 53 53 53 53 54 55 55 55 56 58 57 54 40 50 47 49 52 54 56 60 60 58 59 56 58 57 56 54 50 52 52 46 42 47 58 56 56 58 59 59 59 58 60 61 61 61 60 60 58 56 58 57 55
53 53 53 53 54 54 55 55 55 57 59 55 54 42 49 55 55 57 59 59 59 61 59 57 56 59 56 53 54 52 47 45 48 49 56 58 56 55 55 58 58 58 59 60 61 61 60 59 58 58 58 59 58 57
53 54 53 53 54 54 54 55 57 59 58 55 54 52 54 53 54 56 58 59 60 58 59 62 55 54 54 55 50 49 48 46 54 58 60 57 54 56 55 55 56 59 59 60 60 60 59 59 58 57 58 58 58 56
53 53 53 54 54 54 53 54 56 56 55 54 53 56 55 54 55 59 61 62 60 60 59 59 53 53 54 53 50 54 52 58 60 60 60 56 53 51 52 55 56 56 56 57 56 56 55 57 58 58 55 56 55 55
52 53 54 54 54 54 56 55 55 53 51 55 52 56 54 57 58 58 59 59 60 60 59 58 59 53 53 51 53 59 59 62 61 60 53 51 51 52 56 56 55 54 52 53 56 56 57 56 56 55 54 54 54 54
54 53 53 53 54 54 53 54 54 51 54 56 56 55 55 57 59 61 63 61 62 63 60 58 55 56 58 60 60 59 58 60 57 54 56 56 53 50 54 54 51 53 55 55 57 58 58 57 58 58 56 55 55 57
53 53 53 54 54 53 51 53 56 52 52 56 57 55 56 59 61 61 62 60 56 58 56 56 59 62 60 61 58 58 58 58 57 54 52 53 53 55 54 50 55 58 57 56 57 52 57 57 58 56 57 57 59 57
53 54 54 55 52 53 52 53 52 54 56 55 59 57 58 57 56 58 60 56 56 58 57 59 58 60 59 60 60 60 59 58 57 58 58 51 56 56 51 57 58 59 58 58 57 56 53 60 59 59 60 60 61 61
54 54 54 53 52 52 49 55 53 55 54 57 56 58 57 54 56 56 56 56 56 60 57 58 57 58 57 58 58 58 59 59 59 58 52 54 52 52 53 59 58 58 59 59 60 59 60 61 61 60 60 61 56 61
52 54 54 52 49 45 46 55 51 55 52 55 55 53 54 54 55 56 54 56 57 56 57 57 58 58 58 58 57 57 58 59 59 60 60 60 57 61 61 60 61 60 59 59 61 61 60 53 54 60 60 60 61 61
52 52 49 48 46 42 53 51 54 54 56 54 54 52 55 54 55 54 55 55 56 56 56 57 58 56 57 56 58 58 58 59 60 60 61 61 60 60 62 62 60 63 65 65 60 60 60 59 54 59 60 59 60 61
44 45 45 37 51 47 48 51 52 52 51 54 52 53 52 53 52 53 53 53 54 56 58 58 56 59 59 58 58 58 57 61 62 61 59 63 62 60 60 61 62 62 63 61 60 60 60 60 59 60 60 60 60 59
38 49 42 50 51 49 51 49 51 51 51 52 54 53 54 53 52 51 54 56 57 60 61 60 59 56 56 60 59 60 62 64 64 63 63 64 64 64 62 60 61 61 61 64 63 61 60 59 59 59 60 57 46 58
40 47 51 56 54 53 53 54 54 53 51 51 54 53 52 49 51 53 56 57 60 61 60 60 60 60 60 60 62 63 61 64 64 64 64 65 65 66 67 65 63 67 64 63 64 63 61 60 61 61 61 61 61 61
51 51 48 52 52 55 51 49 51 51 53 53 53 52 50 52 53 56 60 61 61 60 59 58 58 61 63 64 63 61 62 62 61 62 63 63 63 65 64 67 66 46 63 65 65 65 65 64 63 63 63 62 62 63
47 53 52 49 51 52 52 53 54 56 56 53 53 52 53 56 59 61 61 62 61 63 62 61 60 63 63 62 62 64 63 64 64 62 62 63 65 63 63 65 64 63 64 63 47 57 64 65 65 65 64 64 65 65
49 54 51 51 51 52 58 57 57 60 57 56 56 55 55 58 60 63 62 62 63 65 64 64 63 65 64 65 63 63 65 66 67 68 65 65 67 68 66 65 65 64 64 65 64 60 44 58 53 62 61 63 63 63
55 53 51 53 54 58 61 61 60 58 58 57 57 56 57 59 64 64 64 65 64 64 64 63 63 65 65 65 66 65 65 68 65 65 67 69 70 67 66 66 65 64 64 64 64 64 64 63 63 63 63 62 62 59
53 52 52 51 54 60 61 60 59 56 55 55 55 58 59 57 56 63 63 63 64 64 57 63 65 67 68 69 69 70 51 72 70 69 66 66 66 66 66 66 65 64 63 63 63 64 64 64 64 63 63 62 62 62
54 54 55 56 56 55 56 57 56 55 56 55 56 57 58 60 57 63 64 64 66 69 68 68 69 69 66 65 66 67 55 68 61 48 48 48 50 55 64 65 64 65 64 64 64 64 63 62 63 62 62 62 62 63

GFSWCAN_sfc_temp_123.txt.gz
Temp
56 56 56 56 56 56 56 57 57 57 57 58 58 59 60 59 59 63 84 85 79 82 81 83 84 80 82 82 74 76 76 77 75 68 69 70 65 67 63 66 64 63 62 62 65 57 50 75 76 67 70 77 78 79
56 55 55 56 56 56 56 56 57 57 57 58 58 59 59 59 58 59 80 88 86 84 80 86 85 86 83 82 80 82 76 73 77 72 74 73 66 69 63 56 71 59 67 60 62 60 73 78 75 77 79 76 77 77
55 55 55 55 55 55 56 56 57 57 57 57 58 58 59 58 58 59 79 88 87 80 80 82 80 84 89 87 89 75 81 79 77 79 75 74 63 71 60 63 66 68 73 68 67 71 74 76 78 78 78 77 79 80
55 55 55 55 55 55 56 56 56 57 57 57 58 58 59 58 58 57 79 88 84 85 77 77 87 80 87 88 84 84 82 82 81 80 74 72 69 75 67 68 65 71 52 67 67 65 63 75 77 77 77 78 78 79
54 55 55 55 55 55 56 56 56 56 57 57 58 58 59 58 57 64 82 87 88 80 77 77 83 84 86 83 82 83 82 78 77 73 72 70 77 71 72 70 66 74 68 65 64 60 71 69 76 78 77 76 77 77
54 54 54 54 55 55 55 55 56 56 56 57 57 58 58 57 57 77 75 85 90 87 80 71 81 78 80 81 78 77 82 78 78 76 75 77 71 69 64 62 71 76 77 75 70 60 66 75 77 79 77 78 79 78
54 54 54 55 55 55 55 55 55 56 56 56 57 57 57 56 65 74 72 73 64 85 78 73 73 79 79 79 80 80 77 80 77 77 73 72 71 67 64 59 70 72 74 74 75 74 71 74 74 77 78 77 75 79
54 54 54 54 55 55 55 55 55 56 56 57 57 57 56 56 59 71 77 64 69 80 80 71 71 72 79 73 72 81 75 76 73 74 73 69 70 68 57 67 71 72 73 72 73 75 76 77 76 75 77 78 76 76
54 54 54 54 55 55 55 55 55 56 57 57 57 57 67 69 73 77 63 62 82 77 71 72 67 65 79 75 79 75 76 67 74 68 70 70 64 47 62 66 69 70 70 71 73 75 75 73 73 73 74 75 75 76
54 54 53 53 54 55 55 55 56 57 57 57 62 67 68 75 61 64 73 72 73 75 76 70 77 70 75 73 71 74 73 69 61 69 72 63 62 68 70 71 72 73 73 74 70 68 71 71 71 73 73 75 74 76
54 54 53 53 54 54 54 55 55 56 54 68 69 66 73 60 74 72 67 66 69 66 72 73 75 70 80 69 70 74 68 69 59 64 64 63 63 69 73 73 72 74 74 74 75 75 75 74 73 72 72 72 73 73
54 54 53 53 53 54 54 54 55 58 71 62 67 72 74 70 68 63 62 67 66 62 72 70 72 75 74 78 72 69 65 66 57 70 63 57 68 70 71 72 72 73 73 74 75 73 73 73 74 73 72 71 73 71
54 54 53 53 53 53 54 55 55 55 56 69 66 66 66 66 48 55 55 61 63 70 72 72 68 73 71 73 71 68 59 61 72 62 56 63 67 70 71 72 72 73 73 74 73 74 73 72 73 72 71 72 72 71
53 53 53 53 53 54 54 54 55 58 59 59 59 43 58 57 60 63 66 69 75 74 72 72 70 69 73 67 70 60 68 68 59 55 59 70 68 70 71 73 72 71 72 72 72 72 71 70 70 71 72 74 72 70
53 53 53 54 54 54 53 53 54 61 59 58 61 49 59 67 69 71 75 75 75 78 74 72 71 72 68 65 68 66 59 55 60 61 70 71 69 70 70 72 72 71 71 71 72 69 69 68 68 67 70 71 70 70
53 53 57 54 54 53 52 55 59 59 60 56 60 58 65 62 65 71 71 71 76 76 77 75 68 65 64 67 61 59 59 58 67 73 73 71 68 68 68 69 70 70 69 67 70 70 68 65 63 63 69 70 70 68
52 59 53 53 53 53 52 56 59 54 56 56 58 65 65 66 67 72 74 73 77 73 68 70 61 61 70 65 61 68 64 69 76 74 76 72 68 68 69 69 69 68 68 68 66 62 61 61 63 66 64 64 67 67
60 55 53 53 53 53 54 55 53 53 52 59 60 63 67 71 70 73 76 70 73 72 72 66 70 63 62 60 63 70 73 77 79 78 74 72 71 70 69 67 68 67 66 66 61 60 61 64 62 59 63 66 67 66
56 55 53 53 54 52 52 52 55 51 57 62 66 68 70 71 74 75 74 75 75 71 71 68 63 65 67 72 72 74 76 71 72 70 70 70 69 66 66 67 68 65 64 63 64 63 61 63 67 69 71 70 71 71
53 53 53 53 53 57 56 54 64 59 58 61 67 65 66 68 73 74 75 74 72 70 66 62 66 71 70 61 76 77 78 78 76 69 66 64 59 64 66 67 67 65 62 60 56 53 68 69 71 70 72 70 70 68
51 53 53 55 58 61 60 59 57 60 62 62 69 63 64 70 70 70 70 75 69 66 66 72 72 75 77 71 73 79 78 76 75 70 64 63 67 66 68 68 65 64 55 65 68 67 63 70 70 71 70 71 73 72
56 54 56 59 53 53 54 66 62 64 63 65 64 66 62 59 66 68 71 68 66 69 71 72 74 72 74 73 75 73 74 72 72 66 61 62 66 63 65 67 66 64 69 71 71 70 71 73 72 72 72 71 67 72
52 56 58 57 53 51 53 69 59 64 59 64 68 64 62 59 64 73 63 68 70 74 76 77 76 74 73 73 71 71 71 70 71 67 69 71 68 66 68 67 69 65 70 72 74 73 72 61 66 71 72 72 71 69
53 56 54 55 57 51 65 57 63 62 62 62 63 61 63 62 67 60 59 63 70 77 74 71 73 72 72 70 69 68 70 73 72 70 68 66 64 66 69 69 69 71 73 75 75 74 71 72 64 71 71 70 69 69
44 48 53 41 59 56 57 58 59 61 58 60 60 63 62 68 58 57 55 57 62 64 66 71 73 73 65 64 65 66 71 75 71 65 66 70 70 71 69 68 73 72 76 74 73 72 71 72 70 69 69 69 68 68
39 49 44 56 58 57 56 54 57 57 60 59 62 67 62 58 53 51 56 58 61 70 71 70 69 66 67 71 68 65 69 76 75 70 68 72 71 71 67 65 62 62 76 74 73 73 72 72 70 68 68 66 54 66
40 50 58 66 63 63 62 64 66 62 58 58 61 59 57 52 52 57 64 71 71 73 74 75 75 70 65 69 73 73 76 77 71 71 74 75 75 72 74 68 68 73 75 78 76 73 72 72 69 68 69 70 71 70
55 58 54 60 61 61 57 60 59 57 59 62 60 55 53 56 56 61 70 74 75 75 76 77 78 78 76 75 73 73 75 76 77 78 78 77 79 77 78 74 78 52 73 78 76 77 75 72 70 70 70 69 70 72
58 64 62 57 58 60 61 60 58 64 68 64 59 59 59 63 71 71 73 75 79 78 74 73 74 76 74 74 77 77 76 75 71 68 68 69 72 74 80 78 75 78 78 77 51 57 74 75 74 74 72 71 72 73
59 63 58 58 58 58 64 69 68 72 67 68 66 62 62 68 71 78 76 76 76 75 76 77 76 73 73 74 74 75 79 80 77 74 71 73 74 79 79 79 80 79 78 78 77 73 50 68 64 73 71 72 72 70
61 62 59 60 59 64 65 71 75 74 68 64 64 62 63 67 73 77 77 80 79 78 77 78 77 77 76 75 75 73 74 80 79 78 78 81 81 79 80 80 82 82 79 77 76 74 73 71 71 70 69 69 69 66
63 60 61 58 62 71 74 72 70 69 64 62 61 69 68 65 64 71 78 78 79 76 63 73 76 77 81 80 81 80 53 81 79 80 77 80 81 80 80 81 81 80 77 75 75 75 73 71 71 70 67 69 69 69
64 65 65 65 62 64 69 68 67 65 68 63 63 66 65 66 64 72 79 80 79 78 76 79 82 81 79 79 81 79 66 80 62 49 54 53 53 63 79 79 77 77 75 75 75 75 73 71 71 71 70 70 70 70